When you browse on this site, cookies collect data to enhance your experience and personalize the content and advertising you see.
Visit our Privacy Policy to learn more. By continuing to use the site, you agree to this use of cookies and data.
  • In Latvia
  • List of Countries
  • For 7 days
  • Water Temperature
  • Weather Map
  • Weather Widgets
  • user-avatar
    Login

    Hourly Weather Pinsk

    Today, 25 May, Monday

    Time Temperature Precipitation Wind Pressure Humidity
    00:00 +9°C° 0 mm 1 mps 752 mmHg 95%
    01:00 +8°C° 0 mm 1 mps 752 mmHg 95%
    02:00 +8°C° 0 mm 1 mps 752 mmHg 97%
    03:00 +8°C° 0 mm 1 mps 752 mmHg 97%
    04:00 +7°C° 0 mm 1 mps 753 mmHg 97%
    05:00 +7°C° 0 mm 1 mps 753 mmHg 97%
    06:00 +9°C° 0 mm 1 mps 753 mmHg 93%
    07:00 +10°C° 0 mm 1 mps 753 mmHg 89%
    08:00 +12°C° 0 mm 1 mps 753 mmHg 85%
    09:00 +13°C° 0.5 mm 1 mps 753 mmHg 80%
    10:00 +14°C° 0.5 mm 2 mps 753 mmHg 75%
    11:00 +15°C° 0.5 mm 2 mps 753 mmHg 70%
    12:00 +16°C° 0.6 mm 2 mps 753 mmHg 67%
    13:00 +17°C° 0.6 mm 2 mps 753 mmHg 63%
    14:00 +17°C° 0.6 mm 2 mps 753 mmHg 60%
    15:00 +17°C° 0.6 mm 2 mps 753 mmHg 62%
    16:00 +17°C° 0.6 mm 2 mps 752 mmHg 63%
    17:00 +17°C° 0.6 mm 2 mps 752 mmHg 65%
    18:00 +15°C° 0.2 mm 2 mps 753 mmHg 71%
    19:00 +14°C° 0.2 mm 2 mps 753 mmHg 77%
    20:00 +13°C° 0.2 mm 2 mps 753 mmHg 83%
    21:00 +12°C° 0 mm 1 mps 754 mmHg 85%
    22:00 +11°C° 0 mm 1 mps 754 mmHg 87%
    23:00 +10°C° 0 mm 1 mps 754 mmHg 89%

    Tomorrow, 26 May, Tuesday

    Time Temperature Precipitation Wind Pressure Humidity
    00:00 +10°C° 0 mm 1 mps 754 mmHg 89%
    01:00 +9°C° 0 mm 1 mps 754 mmHg 90%
    02:00 +9°C° 0 mm 1 mps 754 mmHg 90%
    03:00 +9°C° 0 mm 1 mps 755 mmHg 91%
    04:00 +8°C° 0 mm 2 mps 755 mmHg 92%
    05:00 +7°C° 0 mm 2 mps 755 mmHg 93%
    06:00 +9°C° 0 mm 2 mps 755 mmHg 89%
    07:00 +12°C° 0 mm 2 mps 756 mmHg 85%
    08:00 +12°C° 0 mm 3 mps 756 mmHg 82%
    09:00 +13°C° 0.2 mm 3 mps 756 mmHg 81%
    10:00 +13°C° 0.2 mm 4 mps 756 mmHg 80%
    11:00 +14°C° 0.2 mm 5 mps 756 mmHg 80%
    12:00 +14°C° 0.2 mm 5 mps 756 mmHg 77%
    13:00 +15°C° 0.2 mm 5 mps 756 mmHg 74%
    14:00 +16°C° 0.2 mm 5 mps 756 mmHg 71%
    15:00 +17°C° 0.1 mm 4 mps 756 mmHg 71%
    16:00 +17°C° 0.1 mm 4 mps 756 mmHg 70%
    17:00 +17°C° 0.1 mm 3 mps 756 mmHg 70%
    18:00 +16°C° 0.2 mm 3 mps 756 mmHg 75%
    19:00 +15°C° 0.2 mm 2 mps 756 mmHg 81%
    20:00 +14°C° 0.2 mm 1 mps 756 mmHg 86%
    21:00 +13°C° 0.1 mm 1 mps 756 mmHg 88%
    22:00 +12°C° 0.1 mm 1 mps 756 mmHg 90%
    23:00 +11°C° 0.1 mm 1 mps 756 mmHg 92%

    Day after tomorrow, 27 May, Wednesday

    Time Temperature Precipitation Wind Pressure Humidity
    00:00 +11°C° 0 mm 1 mps 756 mmHg 92%
    01:00 +10°C° 0 mm 2 mps 756 mmHg 93%
    02:00 +10°C° 0 mm 2 mps 755 mmHg 94%
    03:00 +9°C° 0 mm 2 mps 755 mmHg 94%
    04:00 +9°C° 0 mm 2 mps 755 mmHg 94%
    05:00 +9°C° 0 mm 2 mps 755 mmHg 95%
    06:00 +12°C° 0 mm 2 mps 755 mmHg 91%
    07:00 +13°C° 0 mm 2 mps 756 mmHg 88%
    08:00 +14°C° 0 mm 2 mps 756 mmHg 84%
    09:00 +16°C° 0.5 mm 2 mps 755 mmHg 78%
    10:00 +17°C° 0.5 mm 2 mps 755 mmHg 72%
    11:00 +18°C° 0.5 mm 2 mps 755 mmHg 66%
    12:00 +18°C° 0.4 mm 2 mps 755 mmHg 64%
    13:00 +19°C° 0.4 mm 2 mps 754 mmHg 62%
    14:00 +20°C° 0.4 mm 1 mps 754 mmHg 59%
    15:00 +19°C° 0.7 mm 2 mps 754 mmHg 65%
    16:00 +18°C° 0.7 mm 2 mps 753 mmHg 71%
    17:00 +17°C° 0.7 mm 3 mps 753 mmHg 77%
    18:00 +16°C° 0.1 mm 2 mps 753 mmHg 79%
    19:00 +15°C° 0.1 mm 2 mps 753 mmHg 81%
    20:00 +14°C° 0.1 mm 2 mps 753 mmHg 83%
    21:00 +13°C° 0 mm 2 mps 753 mmHg 85%
    22:00 +12°C° 0 mm 2 mps 753 mmHg 88%
    23:00 +10°C° 0 mm 2 mps 753 mmHg 91%

    28 May, Thursday

    Time Temperature Precipitation Wind Pressure Humidity
    00:00 +9°C° 0 mm 2 mps 752 mmHg 92%
    01:00 +9°C° 0 mm 2 mps 752 mmHg 94%
    02:00 +8°C° 0 mm 2 mps 752 mmHg 95%
    03:00 +8°C° 0 mm 2 mps 752 mmHg 95%
    04:00 +8°C° 0 mm 2 mps 752 mmHg 96%
    05:00 +8°C° 0 mm 2 mps 751 mmHg 96%
    06:00 +10°C° 0 mm 2 mps 752 mmHg 92%
    07:00 +12°C° 0 mm 2 mps 752 mmHg 88%
    08:00 +13°C° 0 mm 3 mps 752 mmHg 84%
    09:00 +14°C° 0.5 mm 3 mps 751 mmHg 79%
    10:00 +16°C° 0.5 mm 3 mps 751 mmHg 73%
    11:00 +17°C° 0.5 mm 3 mps 751 mmHg 68%
    12:00 +18°C° 0.6 mm 3 mps 750 mmHg 68%
    13:00 +18°C° 0.6 mm 4 mps 750 mmHg 68%
    14:00 +18°C° 0.6 mm 4 mps 749 mmHg 68%
    15:00 +18°C° 0.4 mm 4 mps 749 mmHg 70%
    16:00 +17°C° 0.4 mm 4 mps 749 mmHg 72%
    17:00 +17°C° 0.4 mm 4 mps 749 mmHg 74%
    18:00 +15°C° 0.2 mm 4 mps 748 mmHg 79%
    19:00 +14°C° 0.2 mm 3 mps 748 mmHg 84%
    20:00 +13°C° 0.2 mm 2 mps 748 mmHg 88%
    21:00 +13°C° 0 mm 2 mps 748 mmHg 89%
    22:00 +12°C° 0 mm 2 mps 748 mmHg 91%
    23:00 +10°C° 0 mm 2 mps 748 mmHg 92%

    29 May, Friday

    Time Temperature Precipitation Wind Pressure Humidity
    00:00 +10°C° 0 mm 2 mps 747 mmHg 92%
    01:00 +10°C° 0 mm 2 mps 747 mmHg 93%
    02:00 +10°C° 0 mm 2 mps 747 mmHg 93%
    03:00 +10°C° 0 mm 2 mps 747 mmHg 94%
    04:00 +10°C° 0 mm 2 mps 747 mmHg 94%
    05:00 +9°C° 0 mm 2 mps 747 mmHg 95%
    06:00 +10°C° 0 mm 3 mps 747 mmHg 93%
    07:00 +11°C° 0 mm 3 mps 747 mmHg 91%
    08:00 +12°C° 0 mm 3 mps 747 mmHg 89%
    09:00 +13°C° 0.3 mm 4 mps 747 mmHg 86%
    10:00 +13°C° 0.3 mm 4 mps 747 mmHg 82%
    11:00 +14°C° 0.3 mm 4 mps 747 mmHg 79%
    12:00 +14°C° 0.5 mm 5 mps 747 mmHg 79%
    13:00 +14°C° 0.5 mm 5 mps 747 mmHg 78%
    14:00 +15°C° 0.5 mm 5 mps 747 mmHg 77%
    15:00 +14°C° 0.2 mm 5 mps 747 mmHg 76%
    16:00 +14°C° 0.2 mm 5 mps 747 mmHg 75%
    17:00 +14°C° 0.2 mm 4 mps 747 mmHg 74%
    18:00 +13°C° 0 mm 4 mps 748 mmHg 79%
    19:00 +12°C° 0 mm 3 mps 748 mmHg 83%
    20:00 +12°C° 0 mm 2 mps 748 mmHg 87%
    21:00 +10°C° 0 mm 2 mps 748 mmHg 89%
    22:00 +9°C° 0 mm 2 mps 748 mmHg 91%
    23:00 +8°C° 0 mm 2 mps 749 mmHg 92%

    30 May, Saturday

    Time Temperature Precipitation Wind Pressure Humidity
    00:00 +8°C° 0 mm 2 mps 749 mmHg 93%
    01:00 +8°C° 0 mm 2 mps 749 mmHg 94%
    02:00 +7°C° 0 mm 2 mps 749 mmHg 94%
    03:00 +7°C° 0 mm 2 mps 749 mmHg 95%
    04:00 +7°C° 0 mm 2 mps 749 mmHg 95%
    05:00 +7°C° 0 mm 2 mps 749 mmHg 96%
    06:00 +9°C° 0 mm 2 mps 750 mmHg 89%
    07:00 +12°C° 0 mm 2 mps 750 mmHg 83%
    08:00 +13°C° 0 mm 2 mps 750 mmHg 76%
    09:00 +14°C° 0 mm 3 mps 750 mmHg 71%
    10:00 +16°C° 0 mm 3 mps 750 mmHg 66%
    11:00 +17°C° 0 mm 3 mps 750 mmHg 61%
    12:00 +18°C° 0 mm 3 mps 750 mmHg 60%
    13:00 +18°C° 0 mm 4 mps 750 mmHg 60%
    14:00 +18°C° 0 mm 4 mps 749 mmHg 59%
    15:00 +18°C° 0 mm 4 mps 749 mmHg 59%
    16:00 +18°C° 0 mm 4 mps 749 mmHg 60%
    17:00 +18°C° 0 mm 3 mps 749 mmHg 60%
    18:00 +17°C° 0 mm 3 mps 749 mmHg 66%
    19:00 +14°C° 0 mm 3 mps 749 mmHg 72%
    20:00 +13°C° 0 mm 2 mps 749 mmHg 78%
    21:00 +12°C° 0 mm 2 mps 749 mmHg 81%
    22:00 +10°C° 0 mm 2 mps 749 mmHg 83%
    23:00 +9°C° 0 mm 2 mps 749 mmHg 86%
    Show more